Weather History for Phoenix-Mesa Gateway Airport, AZ

Change the Weather History Date:

Sunday, March 17, 2013

  Actual Average Record
Temperature  
Mean Temperature 70 °F -  
Max Temperature 82 °F 76 °F 100 °F (2007)
Min Temperature 57 °F 49 °F 39 °F (1999)
Cooling Degree Days 4    
Growing Degree Days 20 (Base 50)    
Moisture  
Dew Point 32 °F    
Average Humidity 32    
Maximum Humidity 48    
Minimum Humidity 10    
Precipitation  
Precipitation 0.00 in - - ()
Sea Level Pressure  
Sea Level Pressure 29.83 in    
Wind  
Wind Speed 8 mph (SE)    
Max Wind Speed 12 mph    
Max Gust Speed 20 mph    
Visibility 11 miles    
Events      
Averages and records for this station are not official NWS values.
T = Trace of Precipitation, MM = Missing Value Source: NWS Daily Summary

Daily Weather History Graph

Daily Weather History Graph

Search for Another Location

Airport:

Trip Planner

Search our weather history database for the weather conditions in past years. The results will help you decide how hot, cold, wet, or windy it might be!

Date:

Astronomy

Mar. 17, 2013 Rise Set
Actual Time 6:33 AM MST 6:36 PM MST
Civil Twilight 6:09 AM MST 7:00 PM MST
Nautical Twilight 5:40 AM MST 7:29 PM MST
Astronomical Twilight 5:11 AM MST 7:58 PM MST
Moon 10:05 AM MST (3/17) No Moon Set
Length of Visible Light 12h 51m
Length of Day
12h 02m
Waxing Crescent, 32% of the Moon is Illuminated
Mar 17
Waxing Crescent
Mar 19
First Quarter
Mar 27
Full
Apr 2
Last Quarter
Apr 10
New

Hourly Weather History & Observations

Time (MST) Temp. Dew Point Humidity Pressure Visibility Wind Dir Wind Speed Gust Speed Precip Events Conditions
12:15 AM 60.8 °F 41.0 °F 48% 29.81 in 10.0 mi SE 9.2 mph - N/A   Clear
12:35 AM 60.8 °F 41.0 °F 48% 29.81 in 10.0 mi ESE 9.2 mph - N/A   Clear
12:55 AM 60.8 °F 37.4 °F 42% 29.81 in 10.0 mi ESE 9.2 mph - N/A   Clear
1:15 AM 60.8 °F 37.4 °F 42% 29.81 in 10.0 mi SE 10.4 mph - N/A   Clear
1:35 AM 57.2 °F 35.6 °F 44% 29.80 in 10.0 mi ESE 8.1 mph - N/A   Clear
1:55 AM 60.8 °F 35.6 °F 39% 29.80 in 10.0 mi ESE 6.9 mph - N/A   Clear
2:15 AM 60.8 °F 32.0 °F 34% 29.80 in 10.0 mi ESE 9.2 mph - N/A   Clear
2:35 AM 60.8 °F 32.0 °F 34% 29.80 in 10.0 mi ESE 8.1 mph - N/A   Clear
2:55 AM 60.8 °F 32.0 °F 34% 29.80 in 10.0 mi ESE 8.1 mph - N/A   Clear
3:15 AM 60.8 °F 32.0 °F 34% 29.80 in 10.0 mi ESE 8.1 mph - N/A   Clear
3:35 AM 59.0 °F 32.0 °F 36% 29.79 in 10.0 mi ESE 8.1 mph - N/A   Clear
3:55 AM 57.2 °F 32.0 °F 38% 29.79 in 10.0 mi ESE 8.1 mph - N/A   Clear
4:15 AM 57.2 °F 32.0 °F 38% 29.79 in 10.0 mi ESE 8.1 mph - N/A   Clear
4:35 AM 57.2 °F 32.0 °F 38% 29.80 in 10.0 mi ESE 8.1 mph - N/A   Clear
4:55 AM 57.2 °F 32.0 °F 38% 29.80 in 10.0 mi ESE 9.2 mph - N/A   Clear
5:15 AM 57.2 °F 33.8 °F 41% 29.80 in 10.0 mi East 8.1 mph - N/A   Clear
5:47 AM 57.2 °F 35.6 °F 44% 29.81 in 20.0 mi East 8.1 mph - N/A   Partly Cloudy
6:47 AM 57.2 °F 35.6 °F 44% 29.83 in 30.0 mi ESE 8.1 mph - N/A   Scattered Clouds
7:47 AM 60.8 °F 35.6 °F 39% 29.85 in 30.0 mi East 6.9 mph - N/A   Partly Cloudy
8:47 AM 66.2 °F 32.0 °F 28% 29.87 in 30.0 mi ESE 8.1 mph - N/A   Partly Cloudy
9:47 AM 73.4 °F 35.6 °F 25% 29.88 in 30.0 mi ESE 6.9 mph - N/A   Clear
10:47 AM 75.2 °F 32.0 °F 21% 29.89 in 30.0 mi West 6.9 mph - N/A   Clear
11:47 AM 78.8 °F 32.0 °F 18% 29.88 in 30.0 mi WNW 8.1 mph - N/A   Clear
12:47 PM 78.8 °F 28.4 °F 16% 29.87 in 30.0 mi West 11.5 mph 19.6 mph N/A   Clear
1:47 PM 80.6 °F 28.4 °F 15% 29.83 in 30.0 mi WSW 9.2 mph - N/A   Clear
2:53 PM 80.6 °F 28.4 °F 15% 29.82 in 30.0 mi SW 8.1 mph - N/A   Partly Cloudy
3:52 PM 82.4 °F 21.2 °F 10% 29.82 in 30.0 mi West 10.4 mph - N/A   Scattered Clouds
4:51 PM 80.6 °F 21.2 °F 11% 29.82 in 30.0 mi West 3.5 mph - N/A   Scattered Clouds
5:47 PM 80.6 °F 24.8 °F 13% 29.82 in 30.0 mi SW 8.1 mph - N/A   Scattered Clouds
6:47 PM 73.4 °F 28.4 °F 19% 29.83 in 20.0 mi SW 6.9 mph - N/A   Partly Cloudy
7:47 PM 68.0 °F 30.2 °F 24% 29.83 in 20.0 mi SW 5.8 mph - N/A   Partly Cloudy
7:55 PM 68.0 °F 32.0 °F 26% 29.83 in 10.0 mi SW 4.6 mph - N/A   Clear
8:15 PM 66.2 °F 32.0 °F 28% 29.84 in 10.0 mi Calm Calm - N/A   Clear
8:35 PM 64.4 °F 32.0 °F 30% 29.85 in 10.0 mi Calm Calm - N/A   Clear
8:53 PM 62.6 °F 30.2 °F 30% 29.85 in 20.0 mi ENE 3.5 mph - N/A   Partly Cloudy
8:55 PM 62.6 °F 32.0 °F 32% 29.86 in 10.0 mi Calm Calm - N/A   Clear
9:15 PM 62.6 °F 32.0 °F 32% 29.86 in 10.0 mi East 8.1 mph - N/A   Clear
9:35 PM 62.6 °F 32.0 °F 32% 29.87 in 10.0 mi SE 5.8 mph - N/A   Clear
9:55 PM 62.6 °F 32.0 °F 32% 29.87 in 10.0 mi ESE 8.1 mph - N/A   Clear
10:15 PM 60.8 °F 32.0 °F 34% 29.87 in 10.0 mi SSE 6.9 mph - N/A   Clear
10:35 PM 59.0 °F 33.8 °F 39% 29.88 in 10.0 mi East 5.8 mph - N/A   Clear
10:55 PM 60.8 °F 32.0 °F 34% 29.88 in 10.0 mi ESE 9.2 mph - N/A   Clear
11:15 PM 60.8 °F 32.0 °F 34% 29.88 in 10.0 mi ESE 5.8 mph - N/A   Clear
11:35 PM 59.0 °F 32.0 °F 36% 29.88 in 10.0 mi ESE 5.8 mph - N/A   Clear
11:55 PM 57.2 °F 33.8 °F 41% 29.89 in 10.0 mi SSE 4.6 mph - N/A   Clear